Theta_e
333 328 312 309 300 298 292 294 299 298 298 303 307 304 303 307 304 297 321 332 337 339 342 343 345 345 343 342 343 343 344 345 345 342 341 340 339 338 338 338 336 337 337 338 336 337 337 337 336
327 324 311 303 295 292 293 297 298 301 304 312 309 309 309 306 317 318 324 332 339 340 341 340 342 344 344 343 342 343 343 344 345 342 341 339 338 338 338 336 335 336 337 336 336 336 337 337 336
325 314 306 298 293 291 294 299 300 303 305 305 308 312 309 308 316 322 324 336 339 339 339 339 342 344 344 342 342 342 343 342 347 344 342 340 338 337 337 336 336 335 336 336 335 336 335 336 335
315 313 306 296 293 295 297 300 303 304 304 307 308 304 310 320 320 325 333 337 338 337 337 339 343 344 343 342 342 342 342 342 342 345 342 340 338 337 338 337 337 337 335 335 334 334 335 334 334
314 308 298 294 294 298 300 304 305 303 303 304 308 303 306 318 324 332 333 337 337 336 336 338 342 343 342 342 342 341 341 341 341 344 344 342 341 341 338 338 336 335 335 335 334 335 334 334 333
306 306 297 292 297 298 301 304 303 303 304 305 307 306 306 316 322 329 333 333 337 336 336 337 335 338 340 340 341 340 340 340 340 341 342 342 341 340 339 338 337 336 335 334 335 334 333 332 331
304 300 297 294 298 298 299 304 302 303 303 304 311 305 307 312 321 328 329 332 334 335 334 334 336 336 334 337 337 338 338 338 338 338 337 336 338 339 338 337 337 335 335 334 333 333 332 331 330
306 302 296 294 297 299 300 301 303 304 304 309 312 305 304 315 322 325 327 327 330 333 333 333 334 334 333 333 332 333 335 335 336 335 332 330 331 333 334 332 335 337 337 335 334 333 332 331 329
308 297 294 297 299 301 302 300 302 304 307 310 314 310 315 320 320 322 322 327 331 332 334 331 332 332 331 332 331 329 331 332 332 330 327 325 324 324 328 328 331 335 335 335 334 333 332 331 328
302 295 296 302 302 301 302 299 300 300 302 306 311 316 319 320 318 318 319 324 326 328 331 334 331 331 331 333 331 329 331 330 328 327 325 324 322 322 323 321 326 331 331 333 335 333 332 327 317
301 295 299 304 305 305 304 302 305 301 298 302 306 313 317 316 317 316 317 322 326 329 331 332 333 330 329 330 329 328 328 327 326 325 323 322 322 320 319 319 319 322 323 327 327 324 323 319 316
297 303 302 304 304 303 301 305 305 302 304 307 307 317 317 317 317 317 317 318 320 323 329 331 332 332 330 329 327 328 328 327 326 324 322 320 319 318 318 318 318 317 318 323 323 320 319 318 316
298 300 304 302 303 302 303 302 302 303 306 308 313 318 317 317 317 319 320 319 317 320 325 327 332 330 332 328 328 326 327 328 327 324 323 321 319 318 318 317 318 317 317 318 317 318 322 318 317
299 300 300 303 302 302 300 300 303 304 305 306 307 313 316 316 317 315 317 319 318 319 321 326 328 331 332 331 328 327 327 327 326 325 324 322 321 319 317 316 317 316 317 318 318 318 317 317 316
302 297 298 301 302 301 301 297 299 302 305 304 304 304 307 314 317 317 319 319 320 321 321 320 326 330 330 330 330 329 327 326 325 326 324 322 321 319 319 318 318 319 317 317 316 315 315 313 313
295 295 290 296 301 301 300 289 297 302 301 302 302 301 301 303 305 308 316 319 320 321 319 321 322 326 330 330 331 330 329 326 326 326 325 323 322 320 319 319 319 319 318 317 317 317 316 314 314
291 285 289 293 299 297 298 292 299 300 299 299 298 299 300 301 302 303 304 307 316 320 321 320 320 321 326 330 330 330 328 326 327 326 325 323 323 322 321 320 320 318 319 318 318 317 317 316 315
287 286 288 287 293 295 293 292 297 300 298 298 298 299 299 301 303 305 306 306 306 311 318 320 319 320 321 325 328 327 326 326 327 326 325 324 323 322 321 321 320 318 318 318 318 318 314 316 316
290 288 287 291 296 292 291 291 294 297 295 295 296 297 299 302 307 305 304 305 305 306 307 316 317 318 319 317 320 324 323 325 324 326 326 325 324 323 322 322 320 318 318 318 316 316 314 312 308
293 287 286 292 295 292 291 291 295 297 298 297 297 298 298 300 301 301 302 302 303 305 306 308 316 317 318 319 319 321 322 324 325 325 325 325 324 324 323 322 321 319 319 318 316 315 311 312 310
293 291 288 289 292 292 288 286 288 292 293 295 296 299 298 298 299 299 300 300 299 300 303 306 310 315 317 319 317 317 317 316 318 321 323 324 324 324 323 323 323 321 320 319 318 316 315 314 308
287 293 293 291 289 282 288 279 284 288 291 292 294 293 294 295 296 297 297 298 298 300 301 302 305 312 316 317 317 315 317 317 319 321 322 322 323 323 323 322 322 322 320 320 320 319 317 316 314
289 294 292 290 286 282 281 281 282 286 287 290 292 292 293 294 295 296 296 297 295 296 297 302 305 306 315 315 317 316 315 317 318 316 316 318 319 321 322 321 321 321 321 319 319 318 316 318 316
296 292 290 288 285 279 282 281 278 284 286 287 289 291 293 295 293 294 295 296 296 296 296 298 299 299 306 314 314 315 314 315 315 315 314 315 317 319 320 321 321 321 321 320 319 318 318 317 317
293 288 275 274 277 275 281 280 282 288 289 289 290 292 292 294 293 294 295 296 297 297 298 299 299 299 299 300 301 308 313 314 314 315 315 315 315 316 319 319 320 320 321 321 321 319 318 318 316
289 288 276 270 273 275 282 279 282 289 292 293 292 292 293 292 293 294 295 296 295 295 295 297 298 298 298 298 298 298 299 305 312 315 316 318 317 318 319 319 320 320 320 320 321 320 320 319 318
286 286 287 279 277 274 278 281 287 290 291 290 290 292 293 291 292 295 295 293 293 293 293 294 294 295 295 295 295 296 296 297 298 300 304 312 318 320 320 320 320 320 320 320 320 320 320 320 319
289 290 283 284 272 270 276 278 281 286 287 289 289 291 288 292 294 294 292 291 291 291 291 291 292 292 292 292 292 294 295 296 297 298 299 301 303 308 315 320 319 320 320 321 321 321 321 321 320
288 286 286 284 280 274 271 276 284 287 288 288 289 290 289 293 294 292 290 290 290 290 289 289 289 289 290 291 291 293 294 295 296 297 298 299 301 303 305 309 316 319 319 319 320 320 320 320 320
290 287 287 280 276 279 278 279 286 286 288 289 289 289 290 293 293 290 289 289 289 288 288 287 287 288 289 290 291 292 292 292 292 293 295 297 298 300 303 306 309 314 318 318 319 319 319 319 318
Wind_Speed
10 8 2 5 6 6 1 3 0 3 2 1 3 4 5 2 3 4 3 6 8 9 7 9 14 13 14 12 12 11 10 10 15 16 14 13 13 13 13 11 12 12 13 13 13 12 10 14 14
9 4 5 3 7 4 3 2 4 2 4 6 4 2 5 1 2 2 6 5 9 8 6 6 12 15 14 13 12 12 9 7 14 15 14 13 13 13 13 12 12 12 11 12 11 11 11 11 11
5 3 5 5 4 4 4 3 5 2 5 2 3 3 1 1 1 5 2 9 8 7 7 7 12 13 13 12 10 10 9 5 15 17 14 13 12 12 13 11 11 12 11 11 10 11 10 10 10
6 6 5 6 2 1 3 5 5 5 1 3 3 4 1 1 4 5 7 10 10 5 6 9 12 13 13 12 11 9 10 5 4 14 15 13 12 13 9 10 10 10 11 11 10 9 9 8 9
5 4 5 4 3 3 0 4 5 4 3 2 2 3 2 1 2 7 9 8 12 6 6 6 10 12 12 11 10 9 10 8 8 11 13 14 12 13 10 10 10 9 9 9 10 9 8 7 5
5 3 5 2 4 4 1 4 3 3 3 3 4 5 2 1 3 6 8 7 7 7 6 6 8 8 9 9 8 7 6 7 5 6 12 12 11 11 11 8 9 8 9 9 8 7 5 5 4
5 4 3 0 3 3 1 4 2 4 4 3 7 4 2 1 5 5 6 7 6 5 5 5 5 6 8 9 7 8 8 7 5 5 7 8 9 10 11 10 9 8 8 7 7 6 5 3 3
5 5 2 2 0 3 2 2 1 3 4 2 1 3 2 4 9 8 6 4 5 6 6 6 5 5 5 4 6 7 6 7 6 5 3 3 4 5 9 7 8 9 8 8 8 7 6 4 4
2 5 2 4 5 3 2 2 1 0 4 2 2 1 2 7 9 7 4 5 5 6 7 5 6 6 6 6 6 6 7 8 7 6 6 4 2 4 2 6 7 7 6 7 7 6 5 3 3
4 4 10 4 3 2 2 2 2 2 1 1 2 1 4 7 8 9 7 10 8 11 10 9 5 6 6 5 5 5 5 4 4 5 5 3 2 2 3 3 6 8 7 6 6 7 5 2 1
3 6 4 3 0 2 1 2 1 5 3 5 5 4 5 4 6 8 7 9 14 13 9 9 12 6 6 5 4 3 3 3 4 6 5 5 3 2 1 1 2 2 5 3 3 2 1 3 2
1 3 4 3 0 2 1 4 2 4 3 3 0 5 6 8 9 9 10 10 7 7 13 12 12 12 8 5 5 5 5 4 4 5 7 5 3 4 4 3 2 2 2 2 2 1 2 3 4
2 2 3 2 1 3 3 4 2 5 4 1 5 6 8 7 7 7 7 6 6 8 10 11 13 12 11 8 6 5 6 6 6 6 6 5 4 4 4 4 3 4 3 3 4 3 3 3 4
1 1 1 1 3 3 2 3 3 6 1 6 5 7 8 8 11 4 5 10 9 10 11 10 12 12 10 10 9 7 5 5 5 6 7 8 6 5 4 4 4 4 4 4 4 4 4 4 4
1 1 3 2 3 4 4 5 9 6 4 5 7 7 6 9 8 12 12 12 10 10 9 11 12 10 11 12 10 7 6 6 7 7 7 9 8 7 6 5 6 6 5 6 4 4 4 4 4
1 4 2 3 3 3 6 7 8 5 5 10 11 8 7 9 11 10 9 9 9 10 10 11 10 12 13 12 10 8 7 7 7 7 6 10 10 8 7 6 7 5 4 5 5 6 6 6 6
3 4 5 5 5 0 6 3 7 3 6 9 9 9 9 10 9 9 9 9 10 11 11 10 12 14 15 13 10 8 8 7 8 7 7 9 11 11 10 8 7 7 6 6 6 6 7 7 7
5 2 1 2 3 2 5 8 10 11 5 10 10 10 9 9 15 8 10 9 9 9 9 9 9 12 12 9 7 5 6 7 8 8 9 10 10 12 11 9 9 8 7 7 6 9 6 7 7
4 1 3 3 4 3 7 9 11 12 6 10 11 9 12 15 14 9 8 9 8 8 8 9 8 10 8 4 6 7 10 8 7 9 10 10 11 12 12 10 8 8 10 10 10 8 9 6 3
3 1 3 6 3 2 8 16 18 17 16 11 13 14 13 9 9 9 9 8 7 9 9 7 10 8 10 8 5 5 5 7 7 6 9 12 13 13 11 12 10 11 9 10 10 10 5 6 6
10 15 4 8 6 4 7 10 11 7 4 6 10 16 9 11 11 9 9 9 5 7 8 8 8 7 8 10 3 3 2 0 2 6 8 11 12 12 13 13 11 10 10 10 12 11 13 9 5
6 6 5 4 5 4 5 11 6 7 7 5 10 8 9 9 8 9 9 9 5 7 5 6 7 7 7 7 8 8 9 9 9 8 6 7 10 12 12 13 13 12 8 11 11 10 12 10 10
5 6 7 5 4 5 3 5 6 4 6 12 10 7 8 8 7 9 8 5 4 4 4 3 2 3 4 6 7 6 7 6 4 2 5 6 6 10 11 12 12 11 10 11 12 10 12 11 11
4 3 2 2 3 8 8 8 4 5 6 4 4 6 5 5 6 7 6 7 5 5 7 6 7 7 6 2 4 6 7 6 4 5 4 4 5 6 11 12 11 12 11 13 11 13 14 12 12
5 5 0 2 3 8 0 4 5 9 8 7 8 10 6 4 6 7 7 7 7 8 8 6 7 8 8 7 6 3 4 5 7 6 4 5 4 5 9 10 11 10 13 13 12 12 12 13 12
11 8 7 9 6 5 1 9 8 6 8 9 7 8 6 4 4 6 6 6 6 7 7 7 8 7 8 8 8 6 6 3 4 5 4 5 5 7 7 9 11 12 12 12 12 10 11 13 13
4 12 5 5 1 2 5 8 9 9 11 6 4 5 5 6 5 6 6 5 5 6 7 6 7 6 7 7 6 7 6 6 5 6 5 5 6 6 7 10 11 12 13 13 12 10 12 13 13
6 7 5 3 3 6 5 6 8 8 8 7 4 6 4 6 7 5 4 4 4 5 5 7 6 6 6 7 6 5 5 6 6 5 6 7 7 7 9 10 10 12 13 14 13 12 12 13 11
8 7 4 5 6 5 2 7 8 9 5 8 9 7 8 7 7 5 3 4 5 5 6 6 7 6 6 6 6 6 5 6 6 6 6 7 9 9 9 9 11 10 12 12 13 14 14 15 14
13 6 7 5 5 4 3 14 1 4 5 5 0 2 5 7 8 5 4 3 4 5 5 5 5 5 5 5 5 5 6 7 8 8 9 10 10 10 11 11 10 11 11 11 13 15 14 15 14
Wind_Direction
329 322 61 41 60 66 57 239 7 142 133 296 66 144 182 98 159 207 302 179 138 145 151 144 139 139 140 142 143 138 144 138 136 128 128 129 124 118 115 113 115 117 115 110 103 95 101 102 98
320 332 46 80 84 76 275 248 179 204 156 139 85 59 38 45 67 78 111 202 146 141 127 132 142 145 149 151 153 150 148 148 149 131 131 132 130 130 126 127 127 125 125 118 109 96 90 122 109
341 30 71 81 104 147 176 200 172 179 158 179 100 70 83 289 0 185 209 146 135 133 132 145 147 152 153 156 164 159 155 174 145 141 136 138 139 129 137 134 135 132 137 128 121 107 97 107 114
0 10 39 75 78 195 188 169 177 151 139 84 131 76 325 226 158 191 146 139 142 131 136 153 152 157 157 160 165 171 148 172 169 143 139 143 147 139 137 139 141 138 143 141 134 121 108 109 125
26 51 43 72 337 315 261 162 165 148 141 119 154 187 148 36 358 127 138 145 160 142 139 153 158 162 166 169 171 175 165 181 194 150 152 147 155 149 150 143 143 149 149 154 152 139 129 118 126
26 78 45 39 326 322 328 153 153 149 162 150 94 131 225 24 130 153 137 139 162 157 149 158 164 159 166 172 184 175 169 190 178 189 157 153 159 152 153 155 152 164 162 165 162 156 145 128 131
102 76 159 26 297 314 331 143 178 169 154 227 155 129 264 229 169 146 137 134 141 142 150 155 164 170 168 174 176 181 192 187 204 245 192 177 174 167 164 162 162 176 175 175 178 174 168 149 109
104 90 121 180 203 290 328 200 111 155 216 75 128 186 216 206 148 122 109 119 148 160 168 169 169 170 176 190 192 187 187 195 186 199 243 240 201 215 172 172 184 175 189 192 193 195 195 186 143
126 73 183 215 162 216 293 159 37 303 116 55 338 160 341 119 118 111 115 161 180 193 194 183 178 180 178 183 193 197 199 192 187 190 206 247 327 327 219 169 195 195 194 190 214 229 220 210 203
94 142 200 215 210 166 159 159 161 106 102 211 297 33 80 128 145 159 167 191 198 204 204 203 194 187 180 186 188 192 196 192 186 183 196 200 252 296 338 335 225 205 201 206 212 238 259 270 322
153 193 205 211 115 12 108 135 182 129 226 217 207 179 147 157 166 178 192 193 203 206 208 203 207 197 188 194 183 184 184 182 184 188 195 200 183 208 248 302 308 284 214 200 246 273 263 273 279
195 229 179 205 169 64 357 317 280 180 202 125 85 157 163 175 194 195 205 209 191 197 212 212 212 209 197 184 192 193 193 191 192 198 188 187 199 195 198 196 239 266 282 219 208 248 275 270 274
185 253 208 266 303 303 342 268 255 269 217 236 79 145 189 206 223 233 229 223 204 212 211 206 210 214 211 201 199 193 199 197 199 197 199 184 195 204 190 202 199 219 205 212 219 233 241 251 260
264 218 308 325 279 288 231 310 144 257 193 227 198 202 209 216 222 238 230 233 214 217 216 203 208 210 205 209 208 208 207 201 194 203 205 198 194 198 194 199 211 204 209 201 206 215 220 231 230
147 168 340 237 203 243 167 282 226 234 295 270 222 226 230 233 242 229 228 232 222 224 223 202 209 199 205 209 211 205 203 194 205 212 204 199 200 199 196 208 212 218 198 205 203 209 211 243 245
69 69 108 252 195 247 144 254 262 195 209 254 271 271 245 247 237 241 234 231 229 230 212 210 204 201 208 212 209 209 205 201 212 211 201 203 205 198 202 211 224 213 203 207 216 215 230 228 225
359 236 212 328 217 321 183 256 270 123 195 256 274 274 273 274 257 256 246 237 236 228 230 220 203 203 206 214 212 207 204 204 214 209 207 202 203 203 208 214 218 194 204 209 216 224 226 237 239
221 276 359 252 333 51 278 259 272 288 243 256 255 272 275 262 264 240 244 240 228 228 229 221 202 212 208 208 202 200 204 212 213 212 213 202 204 205 206 216 215 191 209 216 216 224 213 233 241
101 267 265 287 282 295 260 274 265 273 274 263 270 252 258 259 258 257 248 238 245 238 226 219 201 209 186 170 190 213 218 215 217 219 218 207 208 208 209 218 208 198 211 215 210 214 222 232 185
146 202 286 282 272 249 293 286 281 267 260 235 251 259 250 256 269 258 258 262 234 239 226 217 216 190 197 197 194 195 198 227 222 212 213 211 212 211 210 212 214 207 214 217 209 206 216 234 171
233 245 221 253 320 279 315 273 252 280 255 246 243 250 254 246 261 272 266 257 264 250 244 229 221 210 201 197 145 128 92 20 192 221 221 223 218 216 214 214 217 213 210 216 215 207 211 230 202
237 190 193 264 332 261 44 292 260 267 284 278 273 254 253 265 265 264 272 277 266 266 270 248 238 217 209 178 185 186 204 214 225 224 218 217 210 219 217 219 221 221 211 221 218 212 214 218 230
212 162 194 201 232 307 204 258 274 335 285 264 270 314 278 271 275 284 264 256 57 43 55 18 136 185 198 179 195 196 221 231 258 223 226 216 206 213 214 219 223 223 223 222 224 215 208 216 226
169 206 215 107 177 265 204 183 251 216 214 282 287 321 3 19 23 36 54 92 84 56 52 51 68 56 50 120 208 214 220 233 244 240 229 229 210 211 219 220 220 224 224 226 223 224 218 213 224
177 138 248 348 213 231 283 201 257 258 237 226 275 289 300 337 83 67 56 57 53 47 37 32 42 43 31 43 44 4 279 258 248 258 246 242 235 227 230 218 221 222 224 224 226 226 224 226 224
190 189 162 195 199 259 352 239 251 232 267 255 255 269 288 254 118 101 81 65 56 48 38 34 36 34 22 23 17 15 11 347 301 273 261 254 239 241 231 220 223 227 228 228 229 230 228 226 229
203 209 163 100 0 11 231 289 287 280 290 308 258 277 295 146 145 120 99 77 56 49 43 38 35 30 23 12 5 5 354 351 334 323 313 299 290 272 247 229 228 228 229 228 228 230 233 230 230
168 161 187 171 226 246 257 263 238 304 288 308 313 234 144 142 134 137 108 84 61 48 40 37 32 33 11 1 359 351 337 341 334 327 325 318 307 304 295 275 242 234 227 227 228 234 236 238 233
177 212 198 172 179 199 272 258 222 237 274 283 295 267 178 165 157 155 107 67 60 52 39 33 26 19 9 353 342 344 350 350 346 345 339 334 322 315 303 293 287 261 239 227 228 235 236 237 238
223 212 199 183 234 254 239 254 205 250 260 202 327 58 162 172 160 145 103 84 59 50 37 37 27 22 358 333 332 350 3 357 0 353 346 343 336 328 317 309 299 287 273 246 233 239 241 239 239